Aurora, CO

9:40 PM MST on February 19, 2018 (GMT -0700)
Buckley Air Force Base

Weather History for KBKF - April, 2014

Change the Weather History Date:

Friday, April 11, 2014

  Actual Average Record
Temperature  
Mean Temperature 58 °F -  
Max Temperature 75 °F 56 °F 77 °F (1998)
Min Temperature 41 °F 32 °F 6 °F (1997)
Degree Days  
Heating Degree Days 7    
Growing Degree Days 8 (Base 50)    
Moisture  
Dew Point 27 °F    
Average Humidity 35    
Maximum Humidity 65    
Minimum Humidity 11    
Precipitation  
Precipitation 0.00 in - - ()
Sea Level Pressure  
Sea Level Pressure 29.82 in    
Wind  
Wind Speed 6 mph (SSE)    
Max Wind Speed 9 mph    
Max Gust Speed -    
Visibility 10 miles    
Events      
Averages and records for this station are not official NWS values.
T = Trace of Precipitation, MM = Missing Value Source: NWS Daily Summary

Daily Weather History Graph

Daily Weather History Graph

Search for Another Location

Airport or City:

Trip Planner

Search our weather history database for the weather conditions in past years. The results will help you decide how hot, cold, wet, or windy it might be!

Date:

Astronomy

Apr. 11, 2014 Rise Set
Actual Time 6:27 AM MDT 7:33 PM MDT
Civil Twilight 5:59 AM MDT 8:00 PM MDT
Nautical Twilight 5:26 AM MDT 8:33 PM MDT
Astronomical Twilight 4:52 AM MDT 9:08 PM MDT
Moon 4:16 PM MDT (4/11) 4:23 AM MDT (4/11)
Length of Visible Light 14h 01m
Length of Day
13h 05m
Waxing Gibbous, 87% of the Moon is Illuminated
Apr 11
Waxing Gibbous
Apr 15
Full
Apr 22
Last Quarter
Apr 29
New
May 6
First Quarter

Hourly Weather History & Observations

Time (MDT) Temp. Windchill Dew Point Humidity Pressure Visibility Wind Dir Wind Speed Gust Speed Precip Events Conditions
12:55 AM 50.0 °F - 32.0 °F 50% 29.90 in 10.0 mi West 3.5 mph - N/A   Scattered Clouds
1:55 AM 50.0 °F - 32.0 °F 50% 29.89 in 10.0 mi South 8.1 mph - N/A   Partly Cloudy
2:55 AM 46.4 °F 42.9 °F 32.0 °F 57% 29.91 in 10.0 mi SSW 6.9 mph - N/A   Partly Cloudy
3:55 AM 44.6 °F 39.7 °F 32.0 °F 61% 29.92 in 10.0 mi South 9.2 mph - N/A   Partly Cloudy
4:55 AM 44.6 °F 40.7 °F 32.0 °F 61% 29.92 in 10.0 mi South 6.9 mph - N/A   Partly Cloudy
5:55 AM 41.0 °F 35.8 °F 30.2 °F 65% 29.95 in 10.0 mi South 8.1 mph - N/A   Partly Cloudy
6:55 AM 42.8 °F 38.0 °F 30.2 °F 61% 29.97 in 70.0 mi South 8.1 mph - N/A   Partly Cloudy
7:55 AM 48.2 °F - 32.0 °F 54% 29.97 in 70.0 mi South 6.9 mph - N/A   Partly Cloudy
8:55 AM 55.4 °F - 32.0 °F 41% 29.96 in 70.0 mi SSW 5.8 mph - N/A   Partly Cloudy
9:55 AM 59.0 °F - 24.8 °F 27% 29.91 in 70.0 mi SW 5.8 mph - N/A   Partly Cloudy
10:55 AM 62.6 °F - 24.8 °F 24% 29.91 in 70.0 mi SSE 5.8 mph - N/A   Partly Cloudy
11:55 AM 66.2 °F - 24.8 °F 21% 29.87 in 70.0 mi East 8.1 mph - N/A   Partly Cloudy
12:55 PM 68.0 °F - 23.0 °F 18% 29.82 in 70.0 mi South 5.8 mph - N/A   Partly Cloudy
1:55 PM 71.6 °F - 24.8 °F 17% 29.77 in 70.0 mi SE 3.5 mph - N/A   Scattered Clouds
2:55 PM 73.4 °F - 23.0 °F 15% 29.73 in 70.0 mi NE 3.5 mph - N/A   Scattered Clouds
3:55 PM 73.4 °F - 21.2 °F 14% 29.71 in 70.0 mi NNW 3.5 mph - N/A   Partly Cloudy
4:55 PM 75.2 °F - 17.6 °F 11% 29.68 in 70.0 mi NNE 4.6 mph - N/A   Partly Cloudy
5:55 PM 75.2 °F - 24.8 °F 15% 29.68 in 70.0 mi ENE 6.9 mph - N/A   Partly Cloudy
6:55 PM 68.0 °F - 26.6 °F 21% 29.71 in 70.0 mi NNE 9.2 mph - N/A   Scattered Clouds
7:55 PM 62.6 °F - 24.8 °F 24% 29.70 in 70.0 mi ENE 6.9 mph - N/A   Mostly Cloudy
8:55 PM 60.8 °F - 24.8 °F 25% 29.70 in 25.0 mi East 5.8 mph - N/A   Mostly Cloudy
9:55 PM 53.6 °F - 26.6 °F 35% 29.72 in 25.0 mi South 8.1 mph - N/A   Mostly Cloudy
10:55 PM 55.4 °F - 26.6 °F 33% 29.69 in 10.0 mi SSW 6.9 mph - N/A   Scattered Clouds
11:55 PM 53.6 °F - 23.0 °F 30% 29.66 in 10.0 mi SSW 5.8 mph - N/A   Scattered Clouds